Preview of NWS' New Version of Forecast
This preview is not operational and should not be used for support decisions.

Regional Weather Roundup (RWR)

Issued by National Weather Service (NWS)

                            
000
ASUS43 KLSX 221757
RWRMO 

WEATHER SUMMARY FOR MISSOURI
NATIONAL WEATHER SERVICE SPRINGFIELD MO
100 PM CDT MON JUL 22 2019

NOTE: "FAIR" INDICATES FEW OR NO CLOUDS BELOW 12,000 FEET WITH NO
       SIGNIFICANT WEATHER AND/OR OBSTRUCTIONS TO VISIBILITY.
       CURRENT SKY AND/OR WEATHER CONDITIONS ARE NOT AVAILABLE FOR
       CHILLICOTHE AND FARMINGTON.

MOZ001>031-035>038-043-044-053-054-221900-
...NORTHERN AND WESTERN MISSOURI...
  
CITY           SKY/WX    TMP DP  RH WIND       PRES   REMARKS
KANSAS CTY INT MOSUNNY   80  64  58 N14       30.17S                  
6HR MIN TEMP:  66; 6HR MAX TEMP:  81;                                

LEE'S SUMMIT   PTSUNNY   79  61  53 N16       30.16S                  
6HR MIN TEMP:  67; 6HR MAX TEMP:  81;                                

ST JOSEPH      MOSUNNY   80  62  54 N13G23    30.19R                  
6HR MIN TEMP:  67; 6HR MAX TEMP:  80;                                

CHILLICOTHE      N/A     80  62  54 N12G21    30.15S                  
6HR MIN TEMP:  68; 6HR MAX TEMP:  82;                                

     
$$
MOZ066>068-077>081-088>096-101>105-221900-
...SOUTHWEST MISSOURI...
  
CITY           SKY/WX    TMP DP  RH WIND       PRES   REMARKS
SPRINGFIELD    MOSUNNY   79  63  57 NE18G26   30.09R                  
6HR MIN TEMP:  70; 6HR MAX TEMP:  79; 6HR PCP:  0.22;                

JOPLIN         MOSUNNY   79  65  62 NE15G25   30.11S                  
6HR MIN TEMP:  71; 6HR MAX TEMP:  79; 6HR PCP:  0.05;                

BRANSON        PTSUNNY   73  70  88 N14       30.07R                  
               
$$
MOZ032>034-039>042-045>050-055>058-069>072-221900-
...CENTRAL MISSOURI...  
  
CITY           SKY/WX    TMP DP  RH WIND       PRES   REMARKS
COLUMBIA       NOT AVBL                                               
ROLLA          SUNNY     78  63  59 N12       30.08S                  
6HR MIN TEMP:  66; 6HR MAX TEMP:  78; 6HR PCP:  0.02;                

SEDALIA        MOSUNNY   77  63  61 N15       30.13S                  
6HR MIN TEMP:  66; 6HR MAX TEMP:  78;                                

WARRENSBURG    MOSUNNY   79  61  53 N15       30.13F                  
               
$$
MOZ051-052-059>065-221900-
...EAST CENTRAL MISSOURI...
  
CITY           SKY/WX    TMP DP  RH WIND       PRES   REMARKS
ST LOUIS INTL  MOSUNNY   78  61  55 VRB3      30.05S                  
6HR MIN TEMP:  66; 6HR MAX TEMP:  78; 6HR PCP:  0.27;                

                   
$$
MOZ072>076-082>087-097>100-106>115-221900-
...SOUTH CENTRAL AND SOUTHEAST MISSOURI...
  
CITY           SKY/WX    TMP DP  RH WIND       PRES   REMARKS
CAPE GIRARDEAU CLOUDY    76  71  85 NE14      29.94S                  
6HR MIN TEMP:  74; 6HR MAX TEMP:  78; 6HR PCP:  0.44;                

POPLAR BLUFF   LGT RAIN  76  75  97 N14       29.95S                  
6HR MIN TEMP:  75; 6HR MAX TEMP:  82; 6HR PCP:  0.25;                

WEST PLAINS    CLOUDY    73  67  81 N14G25    30.06R                  
6HR MIN TEMP:  71; 6HR MAX TEMP:  78; 6HR PCP:  0.01;                

                                       
$$